Starlink 31190

operational
NORAD ID: 58897 Int'l Des: 2024-020 Owner: SPXS Country: US Constellation: starlink
LEOCIRCULAR

Starlink 31190について

説明を読み込み中...

リアルタイム位置

3D地球を読み込み中...

次回通過

高度履歴

Altitude vs Time

uPlot chart will show altitude changes over time

軌道要素

1 58897U 24020X 26037.50689797 -.00005307 00000-0 -16734-3 0 9995
2 58897 53.1604 107.4889 0001472 76.0377 284.0787 15.30167104113299
Epoch: Feb 6, 2026 • Age: 9 hours

現在のステータス

高度 483.9 km
速度 7.62 km/s
衛星直下点 -27.53°S, 15.45°W
打ち上げ日 Jan 29, 2024
運用期間 2 years
タイプ internet

技術仕様

分類 Payload
質量 730.00 kg
乾燥質量 700.00 kg
総質量 730.00 kg
長さ 0.30 m
直径 4.10 m
スパン 29.00 m
形状 Box + pan
製造者 SPXS
バスタイプ Starlink V2M
フェーズステータス In Orbit
所有者/国 SPXS/US

大規模コンステレーション

Loading constellations...